GW2702 Weather Reports


time (UTC)temp
C
wind
direction
speed
KPH
gust
KPH
rain 1hr
cm
rain 24hr
cm
rain mn
cm
humidity
%
barometer
mb
20260505004731 28 185 3.2 8.0 0.00 0.00 0.00 39
20260505004227 28 171 1.6 9.7 0.00 0.00 0.00 40
20260505003725 28 172 3.2 9.7 0.00 0.00 0.00 40
20260505003222 28 176 1.6 9.7 0.00 0.00 0.00 38
20260505002718 28 190 0.0 8.0 0.00 0.00 0.00 38
20260505002216 29 247 3.2 11.3 0.00 0.00 0.00 37
20260505001713 28 166 4.8 14.5 0.00 0.00 0.00 39
20260505001211 28 170 3.2 12.9 0.00 0.00 0.00 40
20260505000708 28 138 1.6 8.0 0.00 0.00 0.00 40
20260505000206 28 186 4.8 8.0 0.00 0.00 0.00 38
20260504235702 28 163 1.6 11.3 0.00 0.00 0.00 40
20260504235158 28 155 8.0 11.3 0.00 0.00 0.00 39
20260504234656 28 201 1.6 9.7 0.00 0.00 0.00 40
20260504234153 29 134 4.8 8.0 0.00 0.00 0.00 38
20260504233648 29 152 4.8 9.7 0.00 0.00 0.00 39
20260504233144 28 195 1.6 4.8 0.00 0.00 0.00 40
20260504232642 28 165 6.4 12.9 0.00 0.00 0.00 38
20260504232139 28 189 3.2 11.3 0.00 0.00 0.00 39
20260504231636 27 161 3.2 9.7 0.00 0.00 0.00 39
20260504231132 28 141 4.8 9.7 0.00 0.00 0.00 37
20260504230628 28 225 1.6 8.0 0.00 0.00 0.00 37
20260504230127 27 199 1.6 9.7 0.00 0.00 0.00 38
20260504225625 27 127 4.8 9.7 0.00 0.00 0.00 37
20260504225121 27 209 1.6 8.0 0.00 0.00 0.00 38
20260504224618 27 214 0.0 8.0 0.00 0.00 0.00 38
20260504224114 27 178 3.2 9.7 0.00 0.00 0.00 36
20260504223612 27 180 3.2 9.7 0.00 0.00 0.00 38
20260504223107 27 155 1.6 3.2 0.00 0.00 0.00 36
20260504222605 26 184 0.0 4.8 0.00 0.00 0.00 39
20260504222102 27 212 3.2 9.7 0.00 0.00 0.00 38
20260504221559 27 141 4.8 9.7 0.00 0.00 0.00 37
20260504221055 27 160 1.6 4.8 0.00 0.00 0.00 38
20260504220552 26 195 3.2 9.7 0.00 0.00 0.00 39
20260504220049 27 230 4.8 11.3 0.00 0.00 0.00 40
20260504215546 27 147 1.6 9.7 0.00 0.00 0.00 40
20260504215043 27 163 3.2 12.9 0.00 0.00 0.00 40
20260504214539 26 168 4.8 9.7 0.00 0.00 0.00 38
20260504214036 26 130 6.4 11.3 0.00 0.00 0.00 37
20260504213532 25 138 4.8 12.9 0.00 0.00 0.00 39
20260504213029 26 198 3.2 9.7 0.00 0.00 0.00 38
20260504212525 26 160 4.8 11.3 0.00 0.00 0.00 38
20260504212023 26 146 3.2 4.8 0.00 0.00 0.00 38
20260504211519 27 128 1.6 4.8 0.00 0.00 0.00 37
20260504211016 27 179 3.2 9.7 0.00 0.00 0.00 40
20260504210513 27 180 3.2 4.8 0.00 0.00 0.00 41
20260504210010 26 131 9.7 14.5 0.00 0.00 0.00 40
20260504205508 26 174 3.2 11.3 0.00 0.00 0.00 42
20260504205006 26 172 1.6 11.3 0.00 0.00 0.00 42
20260504204504 26 127 4.8 11.3 0.00 0.00 0.00 42
20260504204003 27 164 1.6 8.0 0.00 0.00 0.00 42
20260504203500 26 220 4.8 8.0 0.00 0.00 0.00 41
20260504202956 26 191 1.6 9.7 0.00 0.00 0.00 43
20260504202452 26 155 8.0 11.3 0.00 0.00 0.00 40
20260504201949 27 214 1.6 9.7 0.00 0.00 0.00 41
20260504201446 26 210 3.2 9.7 0.00 0.00 0.00 42
20260504200944 26 185 1.6 4.8 0.00 0.00 0.00 39
20260504200441 25 176 4.8 8.0 0.00 0.00 0.00 41
20260504195937 26 193 4.8 8.0 0.00 0.00 0.00 41
20260504195433 26 171 3.2 8.0 0.00 0.00 0.00 40
20260504194930 25 206 1.6 8.0 0.00 0.00 0.00 44
20260504194426 26 191 3.2 4.8 0.00 0.00 0.00 41
20260504193922 26 204 3.2 8.0 0.00 0.00 0.00 41
20260504193419 26 176 6.4 8.0 0.00 0.00 0.00 41
20260504192918 26 168 3.2 8.0 0.00 0.00 0.00 41
20260504192415 25 164 4.8 9.7 0.00 0.00 0.00 44
20260504191914 24 231 4.8 9.7 0.00 0.00 0.00 43
20260504191411 24 193 3.2 8.0 0.00 0.00 0.00 44
20260504190906 24 171 6.4 9.7 0.00 0.00 0.00 44
20260504190402 23 174 0.0 8.0 0.00 0.00 0.00 45
20260504185859 24 174 6.4 11.3 0.00 0.00 0.00 44
20260504185356 23 201 3.2 8.0 0.00 0.00 0.00 46
20260504184852 25 174 4.8 8.0 0.00 0.00 0.00 43
20260504184348 24 163 4.8 8.0 0.00 0.00 0.00 46
20260504183844 25 238 3.2 8.0 0.00 0.00 0.00 46
20260504183342 24 160 0.0 3.2 0.00 0.00 0.00 47
20260504182839 25 171 4.8 8.0 0.00 0.00 0.00 45
20260504182337 24 175 3.2 4.8 0.00 0.00 0.00 46
20260504181833 25 176 4.8 4.8 0.00 0.00 0.00 45
20260504181331 25 163 1.6 8.0 0.00 0.00 0.00 45
20260504180830 26 96 3.2 3.2 0.00 0.00 0.00 45
20260504180328 26 214 0.0 3.2 0.00 0.00 0.00 42
20260504175826 26 128 0.0 0.0 0.00 0.00 0.00 44
20260504175322 25 227 1.6 1.6 0.00 0.00 0.00 45
20260504174820 23 167 0.0 3.2 0.00 0.00 0.00 44
20260504174317 24 177 1.6 3.2 0.00 0.00 0.00 46
20260504173814 24 314 3.2 4.8 0.00 0.00 0.00 46
20260504173311 24 117 0.0 8.0 0.00 0.00 0.00 47
20260504172808 25 49 1.6 1.6 0.00 0.00 0.00 45
20260504172305 23 158 1.6 3.2 0.00 0.00 0.00 50
20260504171800 23 133 0.0 0.0 0.00 0.00 0.00 53
20260504171258 23 335 3.2 3.2 0.00 0.00 0.00 54
20260504170755 23 215 1.6 1.6 0.00 0.00 0.00 55
20260504170252 23 32 4.8 4.8 0.00 0.00 0.00 47
20260504160210 20 151 3.2 3.2 0.00 0.00 0.00 61
20260504151138 18 151 0.0 1.6 0.00 0.00 0.00 68
20260504150636 17 164 0.0 1.6 0.00 0.00 0.00 70
20260504150132 17 150 1.6 3.2 0.00 0.00 0.00 72
20260504141101 11 174 0.0 0.0 0.00 0.00 0.00 93
20260504140557 11 180 0.0 0.0 0.00 0.00 0.00 93
20260504130521 10 162 0.0 0.0 0.00 0.00 0.00 95
20260504110409 11 169 0.0 0.0 0.00 0.00 0.00 93
20260504100326 11 220 0.0 0.0 0.00 0.00 0.00 92
20260504081720 12 219 0.0 0.0 0.00 0.00 0.00 88
20260504081216 12 179 0.0 0.0 0.00 0.00 0.00 87
20260504080712 12 182 0.0 0.0 0.00 0.00 0.00 87
20260504080209 12 179 0.0 0.0 0.00 0.00 0.00 87
20260504070137 13 186 0.0 0.0 0.00 0.00 0.00 84
20260504050525 15 176 0.0 1.6 0.00 0.00 0.00 77
20260504050022 15 189 0.0 1.6 0.00 0.00 0.00 76
20260504045519 15 183 0.0 1.6 0.00 0.00 0.00 75
20260504045014 15 194 1.6 1.6 0.00 0.00 0.00 74
20260504044512 16 194 0.0 1.6 0.00 0.00 0.00 73
20260504044009 16 190 0.0 0.0 0.00 0.00 0.00 73
20260504043506 16 178 0.0 0.0 0.00 0.00 0.00 71
20260504043004 16 178 0.0 0.0 0.00 0.00 0.00 70
20260504042500 16 173 0.0 0.0 0.00 0.00 0.00 70
20260504041957 16 172 0.0 0.0 0.00 0.00 0.00 70
20260504041453 17 195 0.0 0.0 0.00 0.00 0.00 70
20260504040949 17 176 0.0 0.0 0.00 0.00 0.00 70
20260504040447 17 188 0.0 0.0 0.00 0.00 0.00 70
20260504035943 17 179 0.0 0.0 0.00 0.00 0.00 68
20260504035440 18 176 0.0 0.0 0.00 0.00 0.00 68
20260504034937 18 174 0.0 0.0 0.00 0.00 0.00 68
20260504034434 18 175 0.0 0.0 0.00 0.00 0.00 68
20260504033931 18 194 0.0 0.0 0.00 0.00 0.00 66
20260504033429 18 178 0.0 1.6 0.00 0.00 0.00 63
20260504032926 19 194 1.6 1.6 0.00 0.00 0.00 63
20260504032423 20 170 0.0 1.6 0.00 0.00 0.00 61
20260504031919 21 170 0.0 0.0 0.00 0.00 0.00 56
20260504031417 21 175 0.0 0.0 0.00 0.00 0.00 54
20260504030913 21 168 0.0 0.0 0.00 0.00 0.00 52
20260504030410 21 159 0.0 0.0 0.00 0.00 0.00 50
20260504025906 21 165 0.0 0.0 0.00 0.00 0.00 50
20260504025403 22 164 0.0 1.6 0.00 0.00 0.00 49
20260504024900 22 182 0.0 3.2 0.00 0.00 0.00 48
20260504024356 22 152 0.0 1.6 0.00 0.00 0.00 49
20260504023854 22 151 1.6 1.6 0.00 0.00 0.00 48
20260504023350 22 172 0.0 4.8 0.00 0.00 0.00 48
20260504022845 22 200 1.6 3.2 0.00 0.00 0.00 48
20260504022343 22 119 4.8 4.8 0.00 0.00 0.00 48
20260504021839 23 143 0.0 3.2 0.00 0.00 0.00 49
20260504021337 23 216 1.6 3.2 0.00 0.00 0.00 47
20260504020833 24 174 0.0 1.6 0.00 0.00 0.00 47
20260504020330 23 173 0.0 4.8 0.00 0.00 0.00 47
20260504015826 23 210 1.6 4.8 0.00 0.00 0.00 47
20260504015322 24 168 3.2 8.0 0.00 0.00 0.00 47
20260504014819 25 168 4.8 9.7 0.00 0.00 0.00 46
20260504014315 25 145 4.8 8.0 0.00 0.00 0.00 44
20260504013813 26 200 1.6 4.8 0.00 0.00 0.00 40
20260504013310 26 147 0.0 0.0 0.00 0.00 0.00 36
20260504012807 26 164 0.0 1.6 0.00 0.00 0.00 37
20260504012305 26 174 0.0 1.6 0.00 0.00 0.00 37
20260504011802 26 150 1.6 1.6 0.00 0.00 0.00 38
20260504011258 27 187 0.0 1.6 0.00 0.00 0.00 37
20260504010754 27 202 0.0 3.2 0.00 0.00 0.00 35
20260504010250 27 156 0.0 3.2 0.00 0.00 0.00 34
20260504005747 28 168 1.6 3.2 0.00 0.00 0.00 36
20260504005244 27 113 0.0 3.2 0.00 0.00 0.00 35